Content
SEND FEEDBACK

Daily
Averages
Monthly
Summary
Canada

RICHMOND NATURE PARK, BRITISH COLUMBIA


Home > North America > Canada > British Columbia
Elevation: 10 feet     Latitude: 49 10N     Longitude: 123 05W

WEATHER
 
SELECT A DAY
Number of Records: 194,309;   Date Range: 1/1/95 - 7/20/14
 
SHARE

PRINT THIS DATA

[ ← Previous Day ]
WEATHER ALMANAC - MARCH 17, 2013
[ Next Day → ]
[ °C ]   °F
Weather ElementAverageHighLow
Temperature43.4 °F46.4 °F (1:00 pm)41 °F (1:00 am)
Dewpoint32.8 °F36 °F (11:00 am)30.2 °F (2:00 pm)
Humidity65.1 %76 % (1:00 am)44 % (5:00 pm)
Barometer30.08 in30.14 in (1:00 pm)29.93 in (1:00 am)
Wind Speed16.2 mph28.8 mph (4:00 am)
Wind Gust34.5 mph (3:00 am)
Weather ElementAverage
Visibility18.4 mi
Wind DirectionWSW (261.1 °)

Weather ElementTotal
Precipitation---
Heating Degree Days21.3 (Base 65)
Averaged from 27 records on March 17, 2013
WEATHER CONDITIONS BREAKOUT
WIND DIRECTION BREAKOUT
WEATHER BY HOUR - MARCH 17, 2013
[ °C ]   °F
Local TimeTemperatureDewpointHumidityBarometerVisibilityWind DirectionWind SpeedGust SpeedPrecipitationEventsConditions
1:00 AM41.0 °F33.8 °F76 %29.93 in15.0 miWNW (290°)20.7 mph27.6 mphMostly Cloudy
2:00 AM41.0 °F33.8 °F76 %29.95 in15.0 miWNW (300°)19.6 mph27.6 mphMostly Cloudy
3:00 AM41.0 °F33.8 °F76 %29.96 in15.0 miWest (280°)26.5 mph34.5 mphScattered Clouds
4:00 AM41.0 °F32.0 °F70 %29.98 in15.0 miWest (280°)28.8 mph34.5 mphScattered Clouds
5:00 AM41.0 °F33.0 °F66 %30.00 in15.0 miWest (280°)28.8 mphPartly Cloudy
5:00 AM41.0 °F33.8 °F76 %30.00 in15.0 miWest (280°)28.8 mph34.5 mphScattered Clouds
6:00 AM41.0 °F33.8 °F76 %30.02 in15.0 miWest (280°)25.3 mph32.2 mphScattered Clouds
7:00 AM41.0 °F32.0 °F70 %30.04 in15.0 miWest (270°)23.0 mph32.2 mphPartly Cloudy
8:00 AM41.0 °F32.0 °F70 %30.07 in20.0 miWNW (290°)17.3 mph32.2 mphPartly Cloudy
9:00 AM42.8 °F33.8 °F70 %30.10 in20.0 miWNW (290°)18.4 mph27.6 mphScattered Clouds
10:00 AM44.6 °F33.8 °F66 %30.12 in20.0 miWest (280°)18.4 mph25.3 mphScattered Clouds
11:00 AM44.0 °F36.0 °F64 %30.12 in19.0 miWest (280°)18.4 mphScattered Clouds
11:00 AM44.6 °F35.6 °F71 %30.12 in20.0 miWest (270°)19.6 mphPartly Cloudy
12:00 PM44.6 °F35.6 °F71 %30.13 in20.0 miWest (270°)16.1 mphPartly Cloudy
1:00 PM46.4 °F33.8 °F62 %30.14 in20.0 miWest (260°)12.7 mphScattered Clouds
2:00 PM46.4 °F30.2 °F53 %30.14 in20.0 miSW (230°)12.7 mphScattered Clouds
3:00 PM46.4 °F32.0 °F57 %30.14 in20.0 miWest (260°)9.2 mphMostly Cloudy
4:00 PM46.4 °F30.2 °F53 %30.14 in20.0 miWSW (240°)8.1 mphMostly Cloudy
5:00 PM46.0 °F31.0 °F44 %30.13 in19.0 miWest (260°)6.9 mphPartly Cloudy
5:00 PM46.4 °F32.0 °F57 %30.13 in20.0 miWSW (250°)5.8 mphMostly Cloudy
6:00 PM44.6 °F32.0 °F61 %30.12 in20.0 miWest (260°)10.4 mphMostly Cloudy
7:00 PM44.6 °F32.0 °F61 %30.10 in20.0 miSW (220°)3.5 mphMostly Cloudy
8:00 PM42.8 °F32.0 °F66 %30.10 in20.0 miSSW (200°)8.1 mphMostly Cloudy
9:00 PM44.6 °F32.0 °F61 %30.11 in20.0 miWSW (240°)13.8 mphMostly Cloudy
10:00 PM42.8 °F32.0 °F66 %30.11 in20.0 miSW (230°)11.5 mphMostly Cloudy
11:00 PM43.0 °F32.0 °F53 %30.10 in19.0 miSW (230°)12.7 mphScattered Clouds
11:00 PM42.8 °F32.0 °F66 %30.10 in20.0 miSW (230°)12.7 mph19.6 mphMostly Cloudy
Hourly data recorded from CYVR, located miles away from Richmond Nature Park, British Columbia







STORIES FROM OUR PARTNERS